STARLINK-35389

Last updated on Fri Dec 12 2025 00:02:05 GMT+0000 (Coordinated Universal Time)

1 66434U 25259N 25345.58335648 .00081557 00000+0 19441-2 0 9993 2 66434 43.0000 54.4126 0001499 280.4880 231.0986 15.40618008 6094
UTC large
Height (km)
Speed (km/s)
/
Latitude / Longitude
Inclination (degrees)
Orbital Period (minutes)
Azimuth
Elevation
Range (km)
Doppler Factor

Next 0 passes for location: London (51.5072 / 0.1276)

Sorry there are no passes over London.